Regional Weather Roundup
Issued by NWS Charleston, WV

Home | Current Version | Previous Version | Graphics & Text | Print | Product List | Glossary On
Versions: 1 2 3 4 5 6 7 8 9 10 11 12 13 14 15 16 17 18 19 20 21 22 23 24 25 26 27 28
000
ASUS41 KRLX 211410
RWRRLX
West Virginia Regional Weather Roundup
National Weather Service Charleston WV
900 AM EST WED FEB 21 2018

Note: "fair" indicates few or no clouds below 12,000 feet with no
significant weather and/or obstructions to visibility.

WVZ003-211500-
Northern Panhandle of West Virginia

CITY           SKY/WX    TMP DP  RH WIND       PRES   REMARKS
WHEELING       CLOUDY    69  53  56 SW15G29   30.21R
$$

WVZ009-211500-
Northwest West Virginia

CITY           SKY/WX    TMP DP  RH WIND       PRES   REMARKS
PARKERSBURG    FAIR      71  54  54 S15G26    30.27R
$$

WVZ006-211500-
Western West Virginia

CITY           SKY/WX    TMP DP  RH WIND       PRES   REMARKS
HUNTINGTON     PTSUNNY   68  53  58 S7        30.26R
$$

WVZ015-211500-
West Central West Virginia

CITY           SKY/WX    TMP DP  RH WIND       PRES   REMARKS
CHARLESTON     FAIR      72  55  55 S10G17    30.27R
$$

WVZ022-031-211500-
North Central West Virginia

CITY           SKY/WX    TMP DP  RH WIND       PRES   REMARKS
CLARKSBURG     FAIR      72  54  53 SW15      30.28R
MORGANTOWN     FAIR      70  52  52 S9G21     30.27R
$$

WVZ025-035-042-045-211500-
Southern West Virginia

CITY           SKY/WX    TMP DP  RH WIND       PRES   REMARKS
BECKLEY        CLOUDY    60  54  80 S5        30.39R
LOGAN          PTSUNNY   70  55  60 S9G15     30.32S
BLUEFIELD      CLOUDY    61  53  75 S5        30.42R
LEWISBURG      FAIR      52  51  98 NE3       30.42S
$$

WVZ047-211500-
Northern Mountains of West Virginia

CITY           SKY/WX    TMP DP  RH WIND       PRES   REMARKS
ELKINS         FAIR      66  53  63 S8        30.34R
$$

WVZ052-211500-
Eastern Panhandle of West Virginia

CITY           SKY/WX    TMP DP  RH WIND       PRES   REMARKS
MARTINSBURG    FAIR      67  56  67 S7        30.29S
PETERSBURG     FAIR      66  55  65 S9        30.30S
$$




USA.gov is the U.S. government's official web portal to all federal, state and local government web resources and services.